Location: Little Arabia
(41.4620°N, 81.7687°W)
Time: 19:54:54
(UTC+00:00)

Cosmos 1953 Rocket - Pass Details

Date: 29 October 2020
Orbit: 605 x 634 km, 82.5° (Epoch: 02 December)

Event Time Altitude Azimuth Distance (km) Brightness Sun altitude
Rises 23:02:48 0° 352° (N) 2,906 7.0 -7.7°
Reaches altitude 10° 23:05:02 10° 353° (N) 2,000 6.1 -8.1°
Maximum altitude 23:09:28 88° 84° (E) 632 3.6 -8.9°
Drops below altitude 10° 23:13:55 10° 173° (S) 2,001 6.2 -9.7°
Sets 23:16:09 0° 173° (S) 2,907 7.1 -10.1°
